Αρχική σελίδα
METAR-TAF:

METAR-TAF

Αεροδρόμια :

Perryton Ochiltree County Airport

Perryton, Τέξας, Ηνωμένες Πολιτείες Αμερικής

γεωγραφικό πλάτος: 36-24N, γεωγραφικό μήκος: 100-44W, υψόμετρο: 890 μ

Παρών καιρός

Η αναφορά έγινε 15 λεπτά πριν, στις 15:15 UTC
Άνεμος 9 kt από Α
Θερμοκρασία 8°C
Υγρασία 66%
Πίεση 1026 hPa
Ορατότητα: 16.1 χλμ
Καθαρός ουρανός

METAR: KPYX 181515Z AUTO 08009KT 10SM CLR 08/02 A3030 RMK AO2 T00760024

Χρόνος: 10:30 (15:30 UTC)


TAF: λείπει

Μετεωρολογικές αναφορές και προγνώσεις για περισσότερα από 4000 αεροδρόμια (δελτία METAR και TAF).

Οι διαθέσιμοι σταθμοί απεικονίζονται στο χάρτη με κίτρινες και κόκκινες κουκκίδες.

Μετακινήστε το ποντίκι πάνω από τις κουκκίδες για να δείτε το όνομα του σταθμού.

Στη συνέχεια, κάντε κλικ για να δείτε τις μετεωρολογικές αναφορές και τις προγνώσεις καιρού.

Για να αλλάξετε το χάρτη: κάντε κλικ στα πράσινα κουμπιά με τον μαύρο σταυρό για να ζουμάρετε, στο πράσινο κουμπί με την παύλα για να αφαιρέσετε το ζουμ ή στα πράσινα βέλη για να αντιπαραβάλλετε χάρτες.


METAR-TAF: